Regional Weather Roundup
Issued by NWS Northern Indiana

Home | Current Version | Previous Version | Graphics & Text | Print | Product List | Glossary On
Versions: 1 2 3 4 5 6 7 8 9 10 11 12 13 14 15 16 17 18 19 20 21 22 23 24 25 26 27 28 29 30 31 32 33 34 35 36 37 38 39 40 41 42 43 44 45 46 47 48 49 50
994
ASUS43 KIWX 241700
RWRIWX

KIWX WEATHER ROUNDUP
NATIONAL WEATHER SERVICE NORTHERN INDIANA
100 PM EDT FRI MAR 24 2017

NOTE: "FAIR" INDICATES FEW OR NO CLOUDS BELOW 12,000 FEET WITH NO
SIGNIFICANT WEATHER AND/OR OBSTRUCTIONS TO VISIBILITY.

* THESE STATIONS ARE NOT UNDER NWS QUALITY CONTROL. THEY ALSO MAY NOT
  REPORT WEATHER SUCH AS PRECIPITATION OR FOG.

INZ001>027-241800-
NORTHERN INDIANA

CITY           SKY/WX    TMP DP  RH WIND       PRES   REMARKS
GARY*          MOSUNNY   73  46  38 S16G32    29.95F
SOUTH BEND     CLOUDY    71  52  50 SW21G31   29.97F
ELKHART*       CLOUDY    72  50  46 SW23G29   29.98S
GOSHEN         CLOUDY    70  51  51 SW22G32   29.99F
MONTICELLO*    SUNNY     71  53  53 SW21G28   30.02F
ANGOLA*        SUNNY     68  61  77 SW20      29.99F
FORT WAYNE     PTSUNNY   68  53  58 SW30G36   30.04F
PERU/GRISSOM   SUNNY     71  56  60 SW24G32   30.03F

$$
INZ028>050-241800-
CENTRAL INDIANA

CITY           SKY/WX    TMP DP  RH WIND       PRES   REMARKS
LAFAYETTE      SUNNY     71  56  58 S16G28    30.04F
KOKOMO*        SUNNY     70  56  61 SW24G38   30.07F
MUNCIE*        SUNNY     69  53  56 SW21G29   30.09F
INDIANAPOLIS   MOSUNNY   72  55  55 SW21G28   30.11F

$$
MIZ043>046-050>051-056>058-064>065-071>073-077>080-241800-
SOUTHWEST LOWER MICHIGAN

CITY           SKY/WX    TMP DP  RH WIND       PRES   REMARKS
BATTLE CREEK   CLOUDY    69  51  52 SW20G26   29.95F
BENTON HARBOR  MOSUNNY   73  47  39 SW29G39   29.93S
COLDWATER*     CLOUDY    68  50  52 SW18G28   29.97F
HILLSDALE*     CLOUDY    66  52  59 SW15G24   29.98F
HOLLAND        MOSUNNY   62  49  62 SW23G32   29.93F
GRAND RAPIDS   CLOUDY    60  48  64 W13G22    29.94S
KALAMAZOO      CLOUDY    71  49  45 SW16G25   29.95F
STURGIS*       MOSUNNY   68  53  59 SW16G26   29.97F
THREE RIVERS*  FAIR      68  51  53 SW17G24   29.96F

$$
OHZ001>008-015>018-024>025-241800-
NORTHWEST OHIO

CITY           SKY/WX    TMP DP  RH WIND       PRES   REMARKS
DEFIANCE       CLOUDY    66  51  58 SW23G37   30.03S
FINDLAY        SUNNY     68  50  52 SW25G36   30.06F
TOLEDO EXPRESS CLOUDY    66  51  58 SW23G30   30.02F
TOLEDO METCALF CLOUDY    67  52  58 SW24G33   30.03F
LIMA           SUNNY     66  52  60 SW25G37   30.08F

$$
AND FOR LAKE MICHIGAN COASTAL AND OPEN LAKE BUOY OBSERVATIONS

STATION/POSITION TEMP    WIND        PRES    VSBY  WAVE
                 AIR SEA DIR/SP/G                  HT/PER
                 (F)     (DEG/KT/KT) (MB)    (MI)  (FT/S)
CALUMET HARBOR    69     210/ 18/ 25 1013.1
MICHIGAN CITY     69     200/ 24/ 27   N/A
BURNS HARBOR      68     220/ 21/ 29 1014.6S

$$
&&




USA.gov is the U.S. government's official web portal to all federal, state and local government web resources and services.